Regional Weather Roundup
Issued by NWS Jackson, KY

Home | Current Version | Previous Version | Text Only | Print | Product List | Glossary Off
Versions: 1 2 3 4 5 6 7 8 9 10 11 12 13 14 15 16 17 18 19 20 21 22 23 24 25 26 27 28 29 30 31 32 33 34 35 36 37 38 39 40 41 42 43 44 45 46 47 48 49 50

000
ASUS43 KJKL 172210
RWRJKL

EAST KENTUCKY HOURLY WEATHER ROUNDUP
NATIONAL WEATHER SERVICE JACKSON KY
500 PM EST WED DEC 17 2014

NOTE: "FAIR" INDICATES FEW OR NO CLOUDS BELOW 12,000 FEET WITH
NO SIGNIFICANT WEATHER AND/OR OBSTRUCTIONS TO VISIBILITY.

* THESE REPORTS ARE NOT UNDER NWS QUALITY CONTROL AND MAY NOT
  REPORT WEATHER SUCH AS PRECIPITATION AND FOG.

KYZ079-080-083-085-087-088-110-112-115-119-120-172300
...EASTERN KENTUCKY...

CITY           SKY/WX    TMP DP  RH WIND       PRES   REMARKS
JACKSON        CLEAR     35  27  72 NW6       30.16F WCI  30
LONDON         CLEAR     38  27  64 W7        30.20R WCI  33
SOMERSET*      PTCLDY    34  28  80 CALM      30.23S
MONTICELLO*    PTCLDY    37  30  76 CALM      30.24F
MIDDLESBORO*   PTCLDY    41  31  68 CALM      30.18S
HARLAN APT*    CLEAR     39  28  65 NW3       30.16R
BLACK MTN*       N/A     30  30 100 W3          N/A
PIKEVILLE APT* CLEAR     37  28  70 NW7       30.14S WCI  32
BIG SANDY*     PTCLDY    37  29  73 NW3       30.17S
MOREHEAD APT*  CLOUDY    34  27  75 NW3       30.22R
$$

KYZ035-036-041-042-044-050-067-078-099-172300
...CENTRAL KENTUCKY...

CITY           SKY/WX    TMP DP  RH WIND       PRES   REMARKS
MT STERLING*   CLOUDY    34  28  80 W7        30.22R WCI  28
FLEMING/MASON* CLOUDY    32  27  80 W9        30.22R WCI  24
DANVILLE*      CLEAR     34  28  80 NW6       30.23R WCI  29
RICHMOND*      CLEAR     36  27  69 NW6       30.20R WCI  31
LEXINGTON      CLOUDY    33  26  75 W9        30.23R WCI  25
FRANKFORT      CLOUDY    33  25  72 NW8       30.24R WCI  26
$$

KYZ091>093-OHZ055-061-077-WVZ005-015-034-035-042-172300
...SOUTHERN OHIO/WEST VIRGINIA...

CITY           SKY/WX    TMP DP  RH WIND       PRES   REMARKS
COVINGTON      CLOUDY    30  22  72 W13       30.23R WCI  20
COLUMBUS       CLOUDY    29  22  75 W14       30.16S WCI  18
DAYTON         CLOUDY    27  22  81 NW14      30.21R WCI  16
WILMINGTON     CLOUDY    29  23  78 W12       30.19R WCI  19
HUNTINGTON     CLOUDY    34  25  69 W6        30.18S WCI  29
CHARLESTON     CLOUDY    37  28  70 VRB6      30.16R WCI  32
PINEVILLE*     PTCLDY    40  33  76 MISG      30.16S
BECKLEY        PTCLDY    36  26  67 NW8       30.08R WCI  30
BLUEFIELD      CLEAR     38  27  64 W9        30.07S WCI  31
$$

VAZ002-007-008-TNZ017-027-036-066-071-172300
...SOUTHWEST VIRGINIA/EAST TENNESSEE...

CITY           SKY/WX    TMP DP  RH WIND       PRES   REMARKS
WISE*          CLEAR     37  27  65 CALM      30.11S
JONESVILLE*    CLEAR     41  32  70 SW5       30.18R
ABINGDON*      CLEAR     44  32  63 W7        30.11S
BRISTOL        PTCLDY    44  32  62 SW8       30.14R
KNOXVILLE      CLOUDY    44  34  67 SW3       30.17S
OAK RIDGE      PTCLDY    46  33  60 SW6       30.19S
CROSSVILLE     CLOUDY    38  29  70 W5        30.18S WCI  34
NASHVILLE      CLOUDY    39  29  67 CALM      30.26S
$$

...KEY TO REMARKS...
VSB - VISIBILITY IN MILES
WCI - WIND CHILL INDEX
HX  - HEAT INDEX

$$


USA.gov is the U.S. government's official web portal to all federal, state and local government web resources and services.